Time,TemperatureF,DewpointF,PressureIn,WindDirection,WindDirectionDegrees,WindSpeedMPH,WindSpeedGustMPH,Humidity,HourlyPrecipIn,Conditions,Clouds,dailyrainin,SoftwareType,DateUTC
2013-03-26 00:00:00,62.5,26.2,29.83,SSW,210,6.0,6.0,25,0.00,,,0.00,Wunderground v.1.15,2013-03-26 07:00:00,
2013-03-26 00:10:00,62.5,23.1,29.83,SSW,210,6.0,6.0,22,0.00,,,0.00,Wunderground v.1.15,2013-03-26 07:10:00,
2013-03-26 00:20:00,62.2,22.8,29.83,SSW,210,7.0,7.0,22,0.00,,,0.00,Wunderground v.1.15,2013-03-26 07:20:00,
2013-03-26 00:30:00,62.2,22.8,29.83,SSW,210,6.0,10.0,22,0.00,,,0.00,Wunderground v.1.15,2013-03-26 07:30:00,
2013-03-26 00:40:00,61.6,22.3,29.83,SSW,210,8.0,10.0,22,0.00,,,0.00,Wunderground v.1.15,2013-03-26 07:40:00,
2013-03-26 00:50:00,60.6,23.6,29.83,SSW,207,10.0,12.0,24,0.00,,,0.00,Wunderground v.1.15,2013-03-26 07:50:00,
2013-03-26 01:00:00,61.0,23.9,29.82,SSW,207,9.0,9.0,24,0.00,,,0.00,Wunderground v.1.15,2013-03-26 08:00:00,
2013-03-26 01:10:00,60.8,23.7,29.83,SSW,207,7.0,10.0,24,0.00,,,0.00,Wunderground v.1.15,2013-03-26 08:10:00,
2013-03-26 01:20:00,60.7,27.4,29.83,SW,214,7.0,10.0,28,0.00,,,0.00,Wunderground v.1.15,2013-03-26 08:20:00,
2013-03-26 01:30:00,59.8,29.1,29.83,SW,214,5.0,5.0,31,0.00,,,0.00,Wunderground v.1.15,2013-03-26 08:30:00,
2013-03-26 01:40:00,59.1,28.5,29.83,SW,214,4.0,10.0,31,0.00,,,0.00,Wunderground v.1.15,2013-03-26 08:40:00,
2013-03-26 01:50:00,59.2,30.1,29.83,SSW,213,6.0,10.0,33,0.00,,,0.00,Wunderground v.1.15,2013-03-26 08:50:00,
2013-03-26 02:00:00,59.0,31.4,29.83,SSW,213,6.0,6.0,35,0.00,,,0.00,Wunderground v.1.15,2013-03-26 09:00:00,
2013-03-26 02:10:00,57.7,30.2,29.83,SSW,213,5.0,10.0,35,0.00,,,0.00,Wunderground v.1.15,2013-03-26 09:10:00,
2013-03-26 02:20:00,57.9,29.7,29.83,SSW,213,6.0,6.0,34,0.00,,,0.00,Wunderground v.1.15,2013-03-26 09:20:00,
2013-03-26 02:30:00,59.5,31.1,29.82,SSW,213,7.0,7.0,34,0.00,,,0.00,Wunderground v.1.15,2013-03-26 09:30:00,
2013-03-26 02:40:00,59.9,31.4,29.82,SSW,213,7.0,7.0,34,0.00,,,0.00,Wunderground v.1.15,2013-03-26 09:40:00,
2013-03-26 02:50:00,59.3,27.8,29.81,SSW,213,4.0,4.0,30,0.00,,,0.00,Wunderground v.1.15,2013-03-26 09:50:00,
2013-03-26 03:00:00,58.0,27.5,29.81,SSW,213,4.0,10.0,31,0.00,,,0.00,Wunderground v.1.15,2013-03-26 10:00:00,
2013-03-26 03:10:00,59.0,28.4,29.81,SSW,213,5.0,5.0,31,0.00,,,0.00,Wunderground v.1.15,2013-03-26 10:10:00,
2013-03-26 03:20:00,59.1,30.0,29.81,SSW,213,5.0,10.0,33,0.00,,,0.00,Wunderground v.1.15,2013-03-26 10:20:00,
2013-03-26 03:30:00,59.8,32.1,29.81,SW,217,9.0,12.0,35,0.00,,,0.00,Wunderground v.1.15,2013-03-26 10:30:00,
2013-03-26 03:40:00,60.0,32.9,29.81,SW,217,11.0,11.0,36,0.00,,,0.00,Wunderground v.1.15,2013-03-26 10:40:00,
2013-03-26 03:50:00,59.1,32.8,29.81,SW,221,9.0,9.0,37,0.00,,,0.00,Wunderground v.1.15,2013-03-26 10:50:00,
2013-03-26 04:00:00,57.8,31.7,29.81,SW,221,4.0,10.0,37,0.00,,,0.00,Wunderground v.1.15,2013-03-26 11:00:00,
2013-03-26 04:10:00,59.2,32.2,29.81,SW,222,7.0,7.0,36,0.00,,,0.00,Wunderground v.1.15,2013-03-26 11:10:00,
2013-03-26 04:20:00,59.9,32.9,29.81,SW,222,5.0,10.0,36,0.00,,,0.00,Wunderground v.1.15,2013-03-26 11:20:00,
2013-03-26 04:30:00,59.0,32.7,29.81,SW,222,7.0,12.0,37,0.00,,,0.00,Wunderground v.1.15,2013-03-26 11:30:00,
2013-03-26 04:40:00,59.3,33.0,29.80,SW,225,9.0,10.0,37,0.00,,,0.00,Wunderground v.1.15,2013-03-26 11:40:00,
2013-03-26 04:50:00,59.0,32.7,29.80,SW,221,7.0,12.0,37,0.00,,,0.00,Wunderground v.1.15,2013-03-26 11:50:00,
2013-03-26 05:00:00,59.7,32.7,29.80,SW,225,12.0,14.0,36,0.00,,,0.00,Wunderground v.1.15,2013-03-26 12:00:00,
2013-03-26 05:10:00,59.7,32.7,29.80,SW,228,12.0,12.0,36,0.00,,,0.00,Wunderground v.1.15,2013-03-26 12:10:00,
2013-03-26 05:20:00,59.2,32.2,29.80,SW,230,12.0,12.0,36,0.00,,,0.00,Wunderground v.1.15,2013-03-26 12:20:00,
2013-03-26 05:29:00,58.4,32.2,29.80,SW,230,9.0,9.0,37,0.00,,,0.00,Wunderground v.1.15,2013-03-26 12:29:00,
2013-03-26 05:40:00,58.5,31.6,29.80,SW,230,8.0,10.0,36,0.00,,,0.00,Wunderground v.1.15,2013-03-26 12:40:00,
2013-03-26 05:50:00,58.0,31.8,29.81,SW,232,7.0,7.0,37,0.00,,,0.00,Wunderground v.1.15,2013-03-26 12:50:00,
2013-03-26 05:59:00,58.2,32.7,29.80,SW,230,5.0,10.0,38,0.00,,,0.00,Wunderground v.1.15,2013-03-26 12:59:00,
2013-03-26 06:10:00,58.7,33.1,29.81,SW,229,8.0,8.0,38,0.00,,,0.00,Wunderground v.1.15,2013-03-26 13:10:00,
2013-03-26 06:20:00,57.9,32.4,29.81,SW,229,6.0,10.0,38,0.00,,,0.00,Wunderground v.1.15,2013-03-26 13:20:00,
2013-03-26 06:30:00,57.7,32.9,29.80,SW,226,10.0,12.0,39,0.00,,,0.00,Wunderground v.1.15,2013-03-26 13:30:00,
2013-03-26 06:40:00,56.6,32.5,29.81,SW,226,9.0,9.0,40,0.00,,,0.00,Wunderground v.1.15,2013-03-26 13:40:00,
2013-03-26 06:49:00,55.6,32.2,29.81,SW,226,7.0,11.0,41,0.00,,,0.00,Wunderground v.1.15,2013-03-26 13:49:00,
2013-03-26 07:00:00,56.0,32.0,29.82,SW,223,11.0,11.0,40,0.00,,,0.00,Wunderground v.1.15,2013-03-26 14:00:00,
2013-03-26 07:10:00,55.7,32.3,29.82,SW,222,9.0,11.0,41,0.00,,,0.00,Wunderground v.1.15,2013-03-26 14:10:00,
2013-03-26 07:20:00,55.4,31.5,29.82,SW,217,8.0,8.0,40,0.00,,,0.00,Wunderground v.1.15,2013-03-26 14:20:00,
2013-03-26 07:30:00,56.3,32.3,29.82,SW,217,6.0,10.0,40,0.00,,,0.00,Wunderground v.1.15,2013-03-26 14:30:00,
2013-03-26 07:40:00,55.6,31.0,29.82,SW,217,2.0,10.0,39,0.00,,,0.00,Wunderground v.1.15,2013-03-26 14:40:00,
2013-03-26 07:50:00,56.2,31.5,29.82,SW,217,4.0,10.0,39,0.00,,,0.00,Wunderground v.1.15,2013-03-26 14:50:00,
2013-03-26 08:00:00,57.1,32.4,29.82,SW,217,5.0,10.0,39,0.00,,,0.00,Wunderground v.1.15,2013-03-26 15:00:00,
2013-03-26 08:09:00,58.1,33.2,29.82,SW,226,9.0,11.0,39,0.00,,,0.00,Wunderground v.1.15,2013-03-26 15:09:00,
2013-03-26 08:20:00,58.6,33.0,29.82,SW,233,12.0,12.0,38,0.00,,,0.00,Wunderground v.1.15,2013-03-26 15:20:00,
2013-03-26 08:30:00,59.5,33.2,29.82,SW,235,10.0,14.0,37,0.00,,,0.00,Wunderground v.1.15,2013-03-26 15:30:00,
2013-03-26 08:40:00,61.1,33.2,29.81,WSW,245,12.0,13.0,35,0.00,,,0.00,Wunderground v.1.15,2013-03-26 15:40:00,
2013-03-26 08:50:00,61.8,33.1,29.81,WSW,251,12.0,14.0,34,0.00,,,0.00,Wunderground v.1.15,2013-03-26 15:50:00,
2013-03-26 09:00:00,63.6,33.2,29.81,WSW,250,14.0,14.0,32,0.00,,,0.00,Wunderground v.1.15,2013-03-26 16:00:00,
2013-03-26 09:10:00,64.0,32.7,29.81,WSW,250,15.0,17.0,31,0.00,,,0.00,Wunderground v.1.15,2013-03-26 16:10:00,
2013-03-26 09:20:00,64.8,31.8,29.81,WSW,252,14.0,14.0,29,0.00,,,0.00,Wunderground v.1.15,2013-03-26 16:20:00,
2013-03-26 09:30:00,65.4,32.3,29.81,WSW,237,14.0,15.0,29,0.00,,,0.00,Wunderground v.1.15,2013-03-26 16:30:00,
2013-03-26 09:40:00,65.8,31.8,29.80,SW,227,15.0,16.0,28,0.00,,,0.00,Wunderground v.1.15,2013-03-26 16:40:00,
2013-03-26 09:49:00,66.8,32.6,29.80,WSW,246,15.0,15.0,28,0.00,,,0.00,Wunderground v.1.15,2013-03-26 16:49:00,
2013-03-26 10:00:00,67.7,30.6,29.80,SW,225,15.0,16.0,25,0.00,,,0.00,Wunderground v.1.15,2013-03-26 17:00:00,
2013-03-26 10:10:00,68.6,31.3,29.80,WSW,245,15.0,16.0,25,0.00,,,0.00,Wunderground v.1.15,2013-03-26 17:10:00,
2013-03-26 10:20:00,69.0,31.7,29.80,SW,234,15.0,16.0,25,0.00,,,0.00,Wunderground v.1.15,2013-03-26 17:20:00,
2013-03-26 10:30:00,69.3,31.9,29.80,WSW,244,15.0,15.0,25,0.00,,,0.00,Wunderground v.1.15,2013-03-26 17:30:00,
2013-03-26 10:39:00,69.6,32.2,29.80,SW,233,14.0,15.0,25,0.00,,,0.00,Wunderground v.1.15,2013-03-26 17:39:00,
2013-03-26 10:50:00,69.9,32.5,29.79,SW,233,14.0,15.0,25,0.00,,,0.00,Wunderground v.1.15,2013-03-26 17:50:00,
2013-03-26 11:00:00,70.3,31.8,29.79,SSW,213,14.0,14.0,24,0.00,,,0.00,Wunderground v.1.15,2013-03-26 18:00:00,
2013-03-26 11:10:00,70.3,31.8,29.79,SSW,194,14.0,14.0,24,0.00,,,0.00,Wunderground v.1.15,2013-03-26 18:10:00,
2013-03-26 11:20:00,70.8,31.1,29.78,SSW,194,14.0,18.0,23,0.00,,,0.00,Wunderground v.1.15,2013-03-26 18:20:00,
2013-03-26 11:30:00,71.1,30.3,29.78,WSW,250,15.0,15.0,22,0.00,,,0.00,Wunderground v.1.15,2013-03-26 18:30:00,
2013-03-26 11:40:00,71.7,30.8,29.78,SSW,200,14.0,14.0,22,0.00,,,0.00,Wunderground v.1.15,2013-03-26 18:40:00,
2013-03-26 11:50:00,71.5,30.6,29.78,SW,229,13.0,13.0,22,0.00,,,0.00,Wunderground v.1.15,2013-03-26 18:50:00,
2013-03-26 12:00:00,72.2,30.1,29.78,SW,221,8.0,15.0,21,0.00,,,0.00,Wunderground v.1.15,2013-03-26 19:00:00,
2013-03-26 12:10:00,73.0,29.5,29.77,SW,219,12.0,15.0,20,0.00,,,0.00,Wunderground v.1.15,2013-03-26 19:10:00,
2013-03-26 12:20:00,73.8,28.9,29.77,SW,221,13.0,18.0,19,0.00,,,0.00,Wunderground v.1.15,2013-03-26 19:20:00,
2013-03-26 12:29:00,74.0,29.1,29.77,WSW,242,13.0,13.0,19,0.00,,,0.00,Wunderground v.1.15,2013-03-26 19:29:00,
2013-03-26 12:40:00,74.9,29.8,29.77,WSW,253,14.0,15.0,19,0.00,,,0.00,Wunderground v.1.15,2013-03-26 19:40:00,
2013-03-26 12:50:00,74.8,29.8,29.76,WSW,256,14.0,14.0,19,0.00,,,0.00,Wunderground v.1.15,2013-03-26 19:50:00,
2013-03-26 12:59:00,74.6,29.6,29.75,SSW,200,14.0,14.0,19,0.00,,,0.00,Wunderground v.1.15,2013-03-26 19:59:00,
2013-03-26 13:10:00,75.7,29.2,29.75,South,188,12.0,12.0,18,0.00,,,0.00,Wunderground v.1.15,2013-03-26 20:10:00,
2013-03-26 13:20:00,75.9,30.7,29.75,West,265,13.0,15.0,19,0.00,,,0.00,Wunderground v.1.15,2013-03-26 20:20:00,
2013-03-26 13:30:00,76.6,29.9,29.75,SW,230,19.0,19.0,18,0.00,,,0.00,Wunderground v.1.15,2013-03-26 20:30:00,
2013-03-26 13:40:00,77.1,31.6,29.75,WSW,246,21.0,21.0,19,0.00,,,0.00,Wunderground v.1.15,2013-03-26 20:40:00,
2013-03-26 13:49:00,77.4,30.5,29.74,SW,233,23.0,23.0,18,0.00,,,0.00,Wunderground v.1.15,2013-03-26 20:49:00,
2013-03-26 14:00:00,77.3,30.5,29.73,SW,215,24.0,28.0,18,0.00,,,0.00,Wunderground v.1.15,2013-03-26 21:00:00,
2013-03-26 14:10:00,77.8,32.2,29.74,WSW,252,24.0,25.0,19,0.00,,,0.00,Wunderground v.1.15,2013-03-26 21:10:00,
2013-03-26 14:20:00,77.4,31.9,29.72,SSW,200,23.0,25.0,19,0.00,,,0.00,Wunderground v.1.15,2013-03-26 21:20:00,
2013-03-26 14:30:00,77.7,32.1,29.72,SW,223,23.0,23.0,19,0.00,,,0.00,Wunderground v.1.15,2013-03-26 21:30:00,
2013-03-26 14:40:00,77.0,32.8,29.73,SW,234,23.0,23.0,20,0.00,,,0.00,Wunderground v.1.15,2013-03-26 21:40:00,
2013-03-26 14:49:00,77.3,33.1,29.73,WSW,242,22.0,22.0,20,0.00,,,0.00,Wunderground v.1.15,2013-03-26 21:49:00,
2013-03-26 15:00:00,77.4,33.2,29.72,WSW,244,22.0,26.0,20,0.00,,,0.00,Wunderground v.1.15,2013-03-26 22:00:00,
2013-03-26 15:10:00,76.8,33.9,29.72,WSW,248,22.0,24.0,21,0.00,,,0.00,Wunderground v.1.15,2013-03-26 22:10:00,
2013-03-26 15:20:00,77.6,34.6,29.72,SW,229,20.0,23.0,21,0.00,,,0.00,Wunderground v.1.15,2013-03-26 22:20:00,
2013-03-26 15:30:00,76.5,34.8,29.71,SW,229,22.0,22.0,22,0.00,,,0.00,Wunderground v.1.15,2013-03-26 22:30:00,
2013-03-26 15:40:00,76.5,34.8,29.71,WSW,243,21.0,21.0,22,0.00,,,0.00,Wunderground v.1.15,2013-03-26 22:40:00,
2013-03-26 15:50:00,76.7,35.0,29.70,WSW,242,21.0,21.0,22,0.00,,,0.00,Wunderground v.1.15,2013-03-26 22:50:00,
2013-03-26 16:00:00,76.4,35.8,29.71,WSW,243,19.0,21.0,23,0.00,,,0.00,Wunderground v.1.15,2013-03-26 23:00:00,
2013-03-26 16:10:00,76.3,35.8,29.70,WSW,238,22.0,25.0,23,0.00,,,0.00,Wunderground v.1.15,2013-03-26 23:10:00,
2013-03-26 16:20:00,76.0,35.5,29.71,SW,234,23.0,24.0,23,0.00,,,0.00,Wunderground v.1.15,2013-03-26 23:20:00,
2013-03-26 16:30:00,76.1,35.6,29.71,WSW,244,22.0,23.0,23,0.00,,,0.00,Wunderground v.1.15,2013-03-26 23:30:00,
2013-03-26 16:40:00,75.9,36.5,29.71,WSW,246,21.0,26.0,24,0.00,,,0.00,Wunderground v.1.15,2013-03-26 23:40:00,
2013-03-26 16:50:00,75.1,34.8,29.70,WSW,237,21.0,21.0,23,0.00,,,0.00,Wunderground v.1.15,2013-03-26 23:50:00,
2013-03-26 16:59:00,75.3,36.0,29.70,WSW,255,20.0,20.0,24,0.00,,,0.00,Wunderground v.1.15,2013-03-26 23:59:00,
2013-03-26 17:10:00,74.7,36.5,29.70,West,259,20.0,20.0,25,0.00,,,0.00,Wunderground v.1.15,2013-03-27 00:10:00,
2013-03-26 17:20:00,74.1,36.0,29.71,WSW,250,21.0,21.0,25,0.00,,,0.00,Wunderground v.1.15,2013-03-27 00:20:00,
2013-03-26 17:30:00,74.1,37.0,29.71,West,265,20.0,20.0,26,0.00,,,0.00,Wunderground v.1.15,2013-03-27 00:30:00,
2013-03-26 17:40:00,73.4,37.4,29.72,West,267,20.0,20.0,27,0.00,,,0.00,Wunderground v.1.15,2013-03-27 00:40:00,
2013-03-26 17:49:00,72.9,37.9,29.71,WSW,254,21.0,22.0,28,0.00,,,0.00,Wunderground v.1.15,2013-03-27 00:49:00,
2013-03-26 18:00:00,72.0,37.1,29.71,WSW,250,22.0,26.0,28,0.00,,,0.00,Wunderground v.1.15,2013-03-27 01:00:00,
2013-03-26 18:10:00,71.3,37.4,29.72,WSW,250,23.0,23.0,29,0.00,,,0.00,Wunderground v.1.15,2013-03-27 01:10:00,
2013-03-26 18:20:00,71.0,38.0,29.73,WSW,248,21.0,21.0,30,0.00,,,0.00,Wunderground v.1.15,2013-03-27 01:20:00,
2013-03-26 18:29:00,70.1,37.2,29.73,WSW,238,22.0,22.0,30,0.00,,,0.00,Wunderground v.1.15,2013-03-27 01:29:00,
2013-03-26 18:40:00,69.6,37.6,29.73,WSW,248,21.0,21.0,31,0.00,,,0.00,Wunderground v.1.15,2013-03-27 01:40:00,
2013-03-26 18:50:00,69.1,38.0,29.73,WSW,257,20.0,20.0,32,0.00,,,0.00,Wunderground v.1.15,2013-03-27 01:50:00,
2013-03-26 19:00:00,68.5,37.5,29.73,WSW,250,20.0,22.0,32,0.00,,,0.00,Wunderground v.1.15,2013-03-27 02:00:00,
2013-03-26 19:10:00,68.1,37.1,29.73,SW,234,20.0,20.0,32,0.00,,,0.00,Wunderground v.1.15,2013-03-27 02:10:00,
2013-03-26 19:20:00,67.9,37.7,29.73,WSW,245,20.0,24.0,33,0.00,,,0.00,Wunderground v.1.15,2013-03-27 02:20:00,
2013-03-26 19:29:00,67.4,38.0,29.73,WSW,249,19.0,19.0,34,0.00,,,0.00,Wunderground v.1.15,2013-03-27 02:29:00,
2013-03-26 19:40:00,67.3,37.2,29.73,WSW,237,17.0,17.0,33,0.00,,,0.00,Wunderground v.1.15,2013-03-27 02:40:00,
2013-03-26 19:50:00,67.3,37.2,29.73,WSW,248,19.0,19.0,33,0.00,,,0.00,Wunderground v.1.15,2013-03-27 02:50:00,
2013-03-26 20:00:00,66.8,37.5,29.75,WSW,250,21.0,21.0,34,0.00,,,0.00,Wunderground v.1.15,2013-03-27 03:00:00,
2013-03-26 20:10:00,66.5,37.2,29.73,WSW,246,20.0,25.0,34,0.00,,,0.00,Wunderground v.1.15,2013-03-27 03:10:00,
2013-03-26 20:20:00,66.4,37.2,29.76,WSW,243,23.0,23.0,34,0.00,,,0.00,Wunderground v.1.15,2013-03-27 03:20:00,
2013-03-26 20:29:00,65.9,37.5,29.75,West,263,19.0,19.0,35,0.00,,,0.00,Wunderground v.1.15,2013-03-27 03:29:00,
2013-03-26 20:40:00,66.0,36.8,29.75,WSW,252,21.0,21.0,34,0.00,,,0.00,Wunderground v.1.15,2013-03-27 03:40:00,
2013-03-26 20:50:00,65.4,37.0,29.75,WSW,237,20.0,27.0,35,0.00,,,0.00,Wunderground v.1.15,2013-03-27 03:50:00,
2013-03-26 21:00:00,65.0,36.7,29.75,WSW,253,18.0,18.0,35,0.00,,,0.00,Wunderground v.1.15,2013-03-27 04:00:00,
2013-03-26 21:10:00,64.6,37.0,29.77,WSW,250,20.0,20.0,36,0.00,,,0.00,Wunderground v.1.15,2013-03-27 04:10:00,
2013-03-26 21:20:00,64.7,37.1,29.77,SW,234,18.0,18.0,36,0.00,,,0.00,Wunderground v.1.15,2013-03-27 04:20:00,
2013-03-26 21:29:00,64.3,36.8,29.76,SW,230,17.0,17.0,36,0.00,,,0.00,Wunderground v.1.15,2013-03-27 04:29:00,
2013-03-26 21:40:00,63.8,36.3,29.76,SW,217,15.0,19.0,36,0.00,,,0.00,Wunderground v.1.15,2013-03-27 04:40:00,
2013-03-26 21:50:00,63.9,36.4,29.76,SW,222,16.0,17.0,36,0.00,,,0.00,Wunderground v.1.15,2013-03-27 04:50:00,
2013-03-26 21:59:00,64.1,36.6,29.76,SSW,209,15.0,15.0,36,0.00,,,0.00,Wunderground v.1.15,2013-03-27 04:59:00,
2013-03-26 22:10:00,64.2,36.0,29.76,SW,228,14.0,14.0,35,0.00,,,0.00,Wunderground v.1.15,2013-03-27 05:10:00,
2013-03-26 22:20:00,64.3,36.0,29.76,SSW,203,13.0,15.0,35,0.00,,,0.00,Wunderground v.1.15,2013-03-27 05:20:00,
2013-03-26 22:30:00,63.7,35.5,29.76,SSW,205,14.0,14.0,35,0.00,,,0.00,Wunderground v.1.15,2013-03-27 05:30:00,
2013-03-26 22:40:00,63.8,35.6,29.77,SSW,213,11.0,11.0,35,0.00,,,0.00,Wunderground v.1.15,2013-03-27 05:40:00,
2013-03-26 22:50:00,63.1,35.0,29.77,SSW,211,9.0,12.0,35,0.00,,,0.00,Wunderground v.1.15,2013-03-27 05:50:00,
2013-03-26 23:00:00,63.0,34.9,29.77,SSW,192,10.0,12.0,35,0.00,,,0.00,Wunderground v.1.15,2013-03-27 06:00:00,
2013-03-26 23:10:00,63.1,35.0,29.77,SSW,209,12.0,13.0,35,0.00,,,0.00,Wunderground v.1.15,2013-03-27 06:10:00,
2013-03-26 23:20:00,63.2,35.8,29.78,SW,214,13.0,13.0,36,0.00,,,0.00,Wunderground v.1.15,2013-03-27 06:20:00,
2013-03-26 23:30:00,63.0,36.3,29.77,SW,227,14.0,15.0,37,0.00,,,0.00,Wunderground v.1.15,2013-03-27 06:30:00,
2013-03-26 23:40:00,62.8,36.1,29.77,SSW,207,15.0,15.0,37,0.00,,,0.00,Wunderground v.1.15,2013-03-27 06:40:00,
2013-03-26 23:50:00,63.1,36.4,29.77,SW,215,16.0,17.0,37,0.00,,,0.00,Wunderground v.1.15,2013-03-27 06:50:00,